TimeIST,TemperatureF,Dew PointF,Humidity,Sea Level PressureIn,VisibilityMPH,Wind Direction,Wind SpeedMPH,Gust SpeedMPH,PrecipitationIn,Events,Conditions,WindDirDegrees,DateUTC
12:00 AM,53.6,53.6,100,29.89,6.2,SSE,8.1,-,N/A,,Scattered Clouds,150,2013-10-17 23:00:00
12:30 AM,53.6,53.6,100,29.89,6.2,SSE,4.6,-,N/A,,Mostly Cloudy,160,2013-10-17 23:30:00
1:00 AM,54,53,95,29.89,16,SE,4.5,,,,Mostly Cloudy,140,2013-10-18 00:00:00
1:00 AM,53.6,53.6,100,29.89,6.2,SE,5.8,-,N/A,,Mostly Cloudy,140,2013-10-18 00:00:00
1:30 AM,53.6,53.6,100,29.89,6.2,SE,5.8,-,N/A,,Mostly Cloudy,130,2013-10-18 00:30:00
2:00 AM,53.6,53.6,100,29.89,6.2,SE,9.2,-,N/A,,Mostly Cloudy,130,2013-10-18 01:00:00
2:30 AM,53.6,53.6,100,29.86,6.2,SE,8.1,-,N/A,,Mostly Cloudy,130,2013-10-18 01:30:00
3:00 AM,53.6,53.6,100,29.86,6.2,SE,10.4,-,N/A,,Mostly Cloudy,140,2013-10-18 02:00:00
3:30 AM,55.4,53.6,94,29.86,2.5,SE,10.4,-,N/A,,Mostly Cloudy,140,2013-10-18 02:30:00
4:00 AM,55.4,55.4,100,29.86,1.9,SE,11.5,-,N/A,,Mostly Cloudy,140,2013-10-18 03:00:00
4:30 AM,55.4,55.4,100,29.83,4.3,SE,12.7,-,N/A,,Mostly Cloudy,140,2013-10-18 03:30:00
5:00 AM,55.4,55.4,100,29.83,6.2,SE,11.5,-,N/A,,Mostly Cloudy,140,2013-10-18 04:00:00
5:30 AM,55.4,55.4,100,29.83,6.2,SSE,10.4,-,N/A,,Mostly Cloudy,150,2013-10-18 04:30:00
6:00 AM,55.4,55.4,100,29.83,5.6,SE,12.7,-,N/A,,Mostly Cloudy,140,2013-10-18 05:00:00
6:30 AM,55.4,55.4,100,29.80,3.7,SE,12.7,-,N/A,,Mostly Cloudy,140,2013-10-18 05:30:00
7:00 AM,56,55,96,29.82,4,SE,13.4,,,,Mist,140,2013-10-18 06:00:00
7:00 AM,55.4,55.4,100,29.80,4.3,SE,13.8,-,N/A,,Mostly Cloudy,140,2013-10-18 06:00:00
7:30 AM,55.4,55.4,100,29.80,4.3,SE,12.7,-,N/A,,Light Drizzle,130,2013-10-18 06:30:00
8:00 AM,57.2,55.4,94,29.80,2.5,SE,13.8,-,N/A,Rain,Light Rain,140,2013-10-18 07:00:00
8:30 AM,57.2,55.4,94,29.80,3.1,SE,18.4,-,N/A,Rain,Light Rain,130,2013-10-18 07:30:00
9:00 AM,55.4,55.4,100,29.80,4.3,SE,16.1,-,N/A,,Mostly Cloudy,130,2013-10-18 08:00:00
9:30 AM,55.4,55.4,100,29.80,2.8,SE,17.3,-,N/A,Rain,Light Rain,130,2013-10-18 08:30:00
10:00 AM,57.2,55.4,94,29.77,5.6,SE,18.4,-,N/A,,Mostly Cloudy,140,2013-10-18 09:00:00
10:30 AM,57.2,55.4,94,29.77,5.6,SE,18.4,-,N/A,,Mostly Cloudy,140,2013-10-18 09:30:00
11:00 AM,57.2,55.4,94,29.77,5.6,SE,19.6,-,N/A,,Mostly Cloudy,130,2013-10-18 10:00:00
11:30 AM,55.4,55.4,100,29.77,5.0,SE,23.0,-,N/A,Rain,Light Rain,130,2013-10-18 10:30:00
12:00 PM,55.4,55.4,100,29.74,3.1,SE,23.0,-,N/A,Rain,Rain,130,2013-10-18 11:00:00
12:30 PM,55.4,51.8,88,29.74,3.7,SE,24.2,-,N/A,Rain,Rain,140,2013-10-18 11:30:00
1:00 PM,55,54,93,29.74,3,SE,26.8,,,Rain,Light Rain,130,2013-10-18 12:00:00
1:00 PM,55.4,53.6,94,29.74,3.1,SE,26.5,-,N/A,Rain,Rain,130,2013-10-18 12:00:00
1:30 PM,51.8,50.0,94,29.71,6.2,SE,25.3,38.0,N/A,Rain,Light Rain,140,2013-10-18 12:30:00
2:00 PM,51.8,50.0,94,29.68,6.2,SE,26.5,-,N/A,Rain,Light Rain,140,2013-10-18 13:00:00
2:30 PM,53.6,51.8,94,29.65,6.2,SE,26.5,-,N/A,Rain,Light Rain,130,2013-10-18 13:30:00
3:00 PM,53.6,53.6,100,29.65,4.3,ESE,23.0,-,N/A,Rain,Light Rain,120,2013-10-18 14:00:00
3:30 PM,55.4,53.6,94,29.65,4.3,ESE,23.0,-,N/A,Rain,Light Rain,120,2013-10-18 14:30:00
4:00 PM,55.4,53.6,94,29.62,5.0,SE,24.2,-,N/A,Rain,Light Rain,130,2013-10-18 15:00:00
4:30 PM,55.4,53.6,94,29.62,3.1,SE,23.0,-,N/A,Rain,Light Rain,130,2013-10-18 15:30:00
5:00 PM,55.4,53.6,94,29.59,3.1,SSE,21.9,-,N/A,Rain,Light Rain,150,2013-10-18 16:00:00
5:30 PM,55.4,53.6,94,29.59,5.0,SSE,23.0,-,N/A,Rain,Light Rain,150,2013-10-18 16:30:00
6:00 PM,55.4,53.6,94,29.59,6.2,SSE,23.0,-,N/A,Rain,Light Rain,150,2013-10-18 17:00:00
6:30 PM,55.4,53.6,94,29.59,6.2,SSE,25.3,-,N/A,Rain,Light Rain,150,2013-10-18 17:30:00
7:00 PM,55,54,95,29.61,7,SE,22.4,,,Rain,Light Rain,140,2013-10-18 18:00:00
7:00 PM,55.4,53.6,94,29.59,6.2,SE,21.9,-,N/A,Rain,Light Rain,140,2013-10-18 18:00:00
7:30 PM,55.4,53.6,94,29.59,6.2,SE,21.9,-,N/A,Rain,Light Rain,140,2013-10-18 18:30:00
8:00 PM,53.6,51.8,94,29.56,6.2,SE,23.0,-,N/A,Rain,Light Rain,140,2013-10-18 19:00:00
8:30 PM,55.4,53.6,94,29.56,6.2,SE,21.9,-,N/A,Rain,Light Rain,140,2013-10-18 19:30:00
9:00 PM,55.4,53.6,94,29.56,6.2,SE,21.9,35.7,N/A,Rain,Light Rain,140,2013-10-18 20:00:00
9:30 PM,55.4,53.6,94,29.56,5.0,SSE,18.4,-,N/A,Rain,Light Rain,150,2013-10-18 20:30:00
10:00 PM,55.4,53.6,94,29.53,5.0,SE,19.6,-,N/A,Rain,Light Rain,140,2013-10-18 21:00:00
10:30 PM,55.4,53.6,94,29.53,5.0,SE,17.3,-,N/A,,Light Drizzle,140,2013-10-18 21:30:00
11:00 PM,55.4,55.4,100,29.50,4.3,SE,15.0,-,N/A,Rain,Light Rain,140,2013-10-18 22:00:00
11:30 PM,55.4,55.4,100,29.47,5.6,SE,17.3,-,N/A,,Light Drizzle,130,2013-10-18 22:30:00